Flag for Ireland Weather past 2 weeks in Dublin, Ireland

Now
66 °F

Broken clouds.


Feels Like: 66 °F
Forecast: 56 / 67 °F
Wind: 13 mph from West

Location: Dublin Airport

Current Time: Jul 26, 2014 at 10:29:14 AM

Latest Report: Jul 26, 2014 at 10:00 AM


Visibility: N/A

Pressure: 30.07 "Hg

Humidity: 83%

Dew point: 61 °F

Location of DublinLocation

Historic Weather in Dublin — Graph

°F

Dublin temperature yesterday

Maximum temperature yesterday: 75 °F (at 1:00 PM)
Minimum temperature yesterday: 54 °F (at 1:30 AM)
Average temperature yesterday: 66 °F

Past Weeks' High & Low Weather Summary

 TemperatureHumidityPressure
High75 °F (Jul 23, 2:30 PM)100% (Jul 17, 4:00 AM)30.24 "Hg (Jul 17, 4:00 AM)
Low50 °F (Jul 17, 6:30 AM)50% (Jul 16, 6:30 PM)29.71 "Hg (Jul 14, 1:30 PM)
Average63 °F80%29.99 "Hg
* Reported Jul 11 9:00 AM — Jul 26 9:30 AM, Dublin, Weather by CustomWeather, © 2014

Note: Actual official high and low records may vary slightly from our data, if they occured in-between our weather recording intervals... More about our weather records

Advertising

Dublin weather history for previous 24 hours

 ConditionsComfort  
Time TempWeatherWind HumidityBarometerVisibility
9:30 AM
Jul 26
64 °FBroken clouds.15 mph88%30.07 "HgN/A
9:00 AM64 °FBroken clouds.10 mph83%30.04 "HgN/A
8:30 AM64 °FBroken clouds.5 mph78%30.04 "HgN/A
8:00 AM64 °FPassing clouds.8 mph73%30.04 "HgN/A
7:30 AM64 °FPassing clouds.10 mph73%30.04 "HgN/A
7:00 AM63 °FSunny.9 mph73%30.04 "Hg10 mi
6:30 AM63 °FSunny.7 mph73%30.04 "Hg10 mi
6:00 AM57 °FClear.7 mph88%30.04 "Hg10 mi
5:30 AM57 °FClear.7 mph88%30.04 "Hg10 mi
5:00 AM57 °FClear.6 mph88%30.04 "Hg10 mi
4:30 AM55 °FClear.6 mph94%30.04 "Hg10 mi
4:00 AM55 °FClear.5 mph94%30.04 "Hg10 mi
3:30 AM55 °FClear.No wind94%30.04 "Hg10 mi
3:00 AM54 °FClear.No wind94%30.07 "Hg10 mi
2:30 AM55 °FClear.No wind88%30.07 "Hg10 mi
2:00 AM54 °FClear.No wind94%30.07 "Hg10 mi
1:30 AM54 °FClear.No wind94%30.07 "Hg10 mi
1:00 AM55 °FClear.No wind94%30.07 "Hg10 mi
12:30 AM57 °FClear.1 mph88%30.07 "Hg10 mi
12:00 AM57 °FClear.3 mph94%30.07 "Hg10 mi
11:30 PM
Jul 25
59 °FClear.3 mph88%30.07 "Hg10 mi
11:00 PM59 °FClear.6 mph88%30.07 "Hg10 mi
10:30 PM59 °FSunny.6 mph88%30.07 "Hg10 mi
10:00 PM61 °FSunny.7 mph83%30.07 "Hg10 mi
9:30 PM63 °FSunny.7 mph77%30.07 "Hg10 mi
9:00 PM64 °FSunny.7 mph73%30.07 "Hg10 mi
8:30 PM66 °FSunny.7 mph73%30.07 "Hg10 mi
8:00 PM68 °FSunny.7 mph69%30.07 "Hg10 mi
7:30 PM70 °FSunny.8 mph64%30.07 "Hg10 mi
7:00 PM72 °FPartly sunny.9 mph61%30.07 "HgN/A
6:30 PM72 °FPartly sunny.12 mph57%30.07 "HgN/A
6:00 PM72 °FPartly sunny.10 mph57%30.07 "HgN/A
5:30 PM73 °FPartly sunny.12 mph53%30.07 "HgN/A
5:00 PM73 °FPartly sunny.12 mph57%30.07 "HgN/A
4:30 PM73 °FPartly sunny.10 mph57%30.09 "HgN/A
4:00 PM75 °FScattered clouds.10 mph54%30.09 "HgN/A
3:30 PM75 °FScattered clouds.12 mph54%30.09 "HgN/A
3:00 PM75 °FPassing clouds.10 mph50%30.09 "HgN/A
2:30 PM75 °FPassing clouds.10 mph54%30.09 "HgN/A
2:00 PM75 °FPassing clouds.10 mph54%30.09 "HgN/A
1:30 PM75 °FScattered clouds.8 mph50%30.09 "HgN/A
1:00 PM75 °FScattered clouds.9 mph50%30.09 "HgN/A
12:30 PM73 °FScattered clouds.9 mph53%30.09 "HgN/A
12:00 PM73 °FPassing clouds.9 mph57%30.12 "HgN/A
11:30 AM73 °FPassing clouds.9 mph57%30.09 "HgN/A
11:00 AM72 °FPassing clouds.8 mph61%30.09 "HgN/A
10:30 AM72 °FPassing clouds.8 mph65%30.09 "HgN/A
10:00 AM70 °FPassing clouds.7 mph69%30.09 "HgN/A
Weather by CustomWeather, © 2014

See weather overviewHow to use our weather pages